Flag for Spain Weather past 2 weeks in Sevilla, Spain

Now
61 °F

Clear.


Feels Like: 61 °F
Forecast: 50 / 65 °F
Wind: 12 mph from Northeast

Location: Sevilla / San Pablo

Current Time: Mar 5, 2015 at 12:23:24 AM

Latest Report: Mar 5, 2015 at 12:00 AM


Visibility: 10 mi

Pressure: 30.33 "Hg

Humidity: 48%

Dew point: 41 °F

Location of SevillaLocation

Historic Weather in Sevilla — Graph

°F

Sevilla temperature yesterday

Maximum temperature yesterday: 73 °F (at 4:30 PM)
Minimum temperature yesterday: 52 °F (at 7:00 AM)
Average temperature yesterday: 61 °F

Past Weeks' High & Low Weather Summary

 TemperatureHumidityPressure
High73 °F (Mar 2, 3:30 PM)100% (Feb 21, 9:30 AM)30.51 "Hg (Feb 21, 9:30 AM)
Low39 °F (Feb 20, 5:30 AM)30% (Feb 19, 4:00 PM)29.83 "Hg (Feb 21, 3:00 PM)
Average56 °F69%30.24 "Hg
* Reported Feb 17 10:00 PM — Mar 4 10:00 PM, Sevilla, Weather by CustomWeather, © 2015

Note: Actual official high and low records may vary slightly from our data, if they occured in-between our weather recording intervals... More about our weather records

Advertising

Sevilla weather history for previous 24 hours

 ConditionsComfort  
Time TempWeatherWind HumidityBarometerVisibility
10:00 PM
Wed, Mar 4
59 °FClear.6 mph68%30.30 "Hg10 mi
9:30 PM61 °FClear.3 mph68%30.30 "Hg10 mi
9:00 PM63 °FClear.6 mph64%30.30 "Hg10 mi
8:30 PM63 °FClear.5 mph64%30.30 "Hg10 mi
8:00 PM64 °FClear.5 mph60%30.27 "Hg10 mi
7:30 PM68 °FClear.5 mph53%30.27 "Hg10 mi
7:00 PM70 °FSunny.3 mph46%30.27 "Hg10 mi
6:30 PM72 °FSunny.6 mph41%30.27 "Hg10 mi
6:00 PM72 °FSunny.9 mph38%30.27 "Hg10 mi
5:30 PM73 °FPassing clouds.12 mph33%30.27 "HgN/A
5:00 PM73 °FSunny.13 mph33%30.27 "Hg10 mi
4:30 PM73 °FPassing clouds.14 mph36%30.27 "HgN/A
4:00 PM72 °FPassing clouds.12 mph41%30.27 "HgN/A
3:30 PM72 °FPassing clouds.13 mph44%30.27 "HgN/A
3:00 PM72 °FPassing clouds.12 mph44%30.27 "HgN/A
2:30 PM72 °FPassing clouds.10 mph44%30.27 "HgN/A
2:00 PM70 °FPassing clouds.8 mph50%30.30 "HgN/A
1:30 PM68 °FPassing clouds.8 mph53%30.30 "HgN/A
1:00 PM66 °FPassing clouds.7 mph60%30.33 "HgN/A
12:30 PM63 °FPassing clouds.7 mph73%30.33 "HgN/A
12:00 PM61 °FPassing clouds.5 mph72%30.33 "HgN/A
11:30 AM61 °FPassing clouds.3 mph72%30.36 "HgN/A
11:00 AM59 °FPassing clouds.6 mph82%30.36 "HgN/A
10:30 AM57 °FPassing clouds.7 mph88%30.36 "Hg6 mi
10:00 AM55 °FScattered clouds.6 mph100%30.33 "Hg4 mi
9:30 AM54 °FFog.5 mph100%30.33 "Hg2 mi
9:00 AM52 °FFog.3 mph100%30.33 "Hg0 mi
8:30 AM52 °FFog.3 mph100%30.33 "Hg0 mi
8:00 AM52 °FFog.2 mph100%30.33 "Hg0 mi
7:30 AM52 °FFog.2 mph100%30.30 "Hg0 mi
7:00 AM52 °FFog.No wind100%30.30 "Hg0 mi
6:30 AM54 °FFog.No wind100%30.30 "Hg1 mi
6:00 AM54 °FSleet. Overcast.No wind100%30.30 "Hg1 mi
5:30 AM54 °FFog.No wind100%30.30 "Hg1 mi
5:00 AM55 °FFog.No wind94%30.30 "Hg1 mi
4:30 AM55 °FFog.No wind94%30.30 "Hg1 mi
4:00 AM54 °FFog.No wind100%30.27 "Hg1 mi
3:30 AM54 °FFog.2 mph100%30.30 "Hg1 mi
1:00 AM55 °FClear.3 mph94%30.30 "Hg4 mi
12:30 AM55 °FClear.2 mph94%30.30 "Hg5 mi
12:00 AM55 °FClear.3 mph94%30.30 "Hg6 mi
Weather by CustomWeather, © 2015

See weather overviewHow to use our weather pages